Regional Weather Roundup
Issued by NWS

Home | Current Version | Previous Version | Graphics & Text | Print | Product List | Glossary Off
Versions: 1 2 3 4 5 6 7 8 9 10 11 12 13 14 15 16 17 18 19 20 21 22 23 24 25 26 27 28 29 30 31 32 33 34 35 36 37 38 39 40 41 42 43 44 45 46 47 48 49 50

000
ASUS43 KDTX 301610
RWRMI
MICHIGAN HOURLY REGIONAL WEATHER ROUNDUP
NATIONAL WEATHER SERVICE DETROIT/PONTIAC MI
1200 PM EDT FRI SEP 30 2016

NOTE: "FAIR" INDICATES FEW OR NO CLOUDS BELOW 12,000 FEET WITH NO
SIGNIFICANT WEATHER AND/OR OBSTRUCTION TO VISIBILITY.

MIZ047>049-052>055-059>063-066>070-074>076-081>083-301700-
SOUTHEAST LOWER MICHIGAN

CITY           SKY/WX    TMP DP  RH WIND       PRES   REMARKS
ADRIAN         CLOUDY    62  62 100 E13       30.14F
ALMA           LGT RAIN  60  59  99 NE8G21    30.23F
ANN ARBOR      CLOUDY    61  60  97 N10       30.16S FOG
BAD AXE        CLOUDY    60  57  89 E15       30.26S
CARO           CLOUDY    59  56  89 E6        30.22F
DETROIT CITY   CLOUDY    60  59  96 E8        30.18R
DETROIT        LGT RAIN  61  61 100 NE7       30.17F FOG
FLINT          CLOUDY    58  56  93 E9        30.20F
GROSSE ILE     CLOUDY    64  59  84 E6        30.15S
HILLSDALE      CLOUDY    61  59  94 E12       30.13F
HOWELL         CLOUDY    59  58  98 NE5       30.19S FOG

CITY           SKY/WX    TMP DP  RH WIND       PRES   REMARKS
JACKSON        CLOUDY    61  61 100 E10       30.16S
LAMBERTVILLE   CLOUDY    65  59  80 E6        30.13F
LANSING        CLOUDY    58  56  93 NE12      30.21R FOG
LAPEER         LGT RAIN  59  56  91 E7        30.21F
MASON          CLOUDY    59  58  96 NE6       30.18F FOG
MONROE         CLOUDY    64  60  84 E15G21    30.14S
MT. CLEMENS    CLOUDY    60  58  91 E13       30.17R
PONTIAC        LGT RAIN  58  56  93 E9        30.18S FOG
PORT HURON     CLOUDY    61  57  88 E8G16     30.20F
TRI CITIES     CLOUDY    60  58  92 NE14      30.24F FOG
MIDLAND        CLOUDY    61  58  89 NE12      30.24S FOG
TROY           CLOUDY    60  56  88 NE8       30.20R
SAGINAW HB     CLOUDY    59  55  88 NE12      30.22F
$$
MIZ043>046-050>051-056>058-064>065-071>073-077>080-301700-
SOUTHWEST LOWER MICHIGAN

CITY           SKY/WX    TMP DP  RH WIND       PRES   REMARKS
BATTLE CREEK   CLOUDY    62  60  93 NE10      30.16F
BENTON HARBOR  CLOUDY    65  58  78 E10G21    30.13F
BIG RAPIDS     CLOUDY    59  58  97 NE8       30.24F
COLDWATER      CLOUDY    62  61  97 NE9       30.13S
FREMONT        DRIZZLE   58  57  96 NE13      30.23S
HOLLAND        CLOUDY    63  58  83 NE14G22   30.18F
GRAND RAPIDS   CLOUDY    60  56  86 NE14      30.19F
IONIA          CLOUDY    58  56  95 NE10      30.20F
KALAMAZOO      CLOUDY    63  58  83 NE8G17    30.15F
LUDINGTON      CLOUDY    62  57  82 E15G21    30.25S
MARSHALL       CLOUDY    62  61  98 NE3       30.15F
MOUNT PLEASANT CLOUDY    60  58  94 NE8       30.23F FOG
MUSKEGON       DRIZZLE   62  59  90 NE10      30.21F
SOUTH HAVEN    PTSUNNY   65  61  86 E9        30.14F
$$
MIZ016>042-301700-
NORTHERN LOWER MICHIGAN

CITY           SKY/WX    TMP DP  RH WIND       PRES   REMARKS
ALPENA         CLOUDY    64  54  69 E20G25    30.34S
BEAVER ISLAND  MOSUNNY   63  56  78 NE16      30.33F
BELLAIRE       CLOUDY    65  55  69 NE13G18   30.30S
CADILLAC       CLOUDY    58  55  87 NE9       30.27S
CHARLEVOIX     CLOUDY    63  55  75 E15G24    30.34S
FRANKFORT      CLOUDY    63  55  76 E7        30.28S
GAYLORD        CLOUDY    61  53  75 E14G21    30.31F
GRAYLING       CLOUDY    60  55  83 NE16      30.30S
HARBOR SPRINGS CLOUDY    63  55  75 E15G23    30.32F
HOUGHTON LAKE  CLOUDY    60  55  83 E14       30.28F
MANISTEE       CLOUDY    63  55  77 E13       30.26F
OSCODA         CLOUDY    61  55  80 NE14      30.29S
PELLSTON       PTSUNNY   65  54  67 NE16      30.34F
ROGERS CITY    CLOUDY    63  55  76 E13G18    30.37S
TRAVERSE CITY  CLOUDY    64  55  72 E7        30.28S
$$
MIZ007>008-015-301700-
EASTERN UPPER MICHIGAN

CITY           SKY/WX    TMP DP  RH WIND       PRES   REMARKS
KINROSS        MOSUNNY   62  51  67 E13       30.38F
MACKINAC ISLAN MOSUNNY   61  53  75 E13       30.36S
NEWBERRY       SUNNY     64  54  70 NE10G16   30.37F
S. S. MARIE    SUNNY     65  50  58 E7        30.38F
MUNISING         N/A     63  57  81 N18       30.37F
$$
MIZ004>006-011>014-085-301700-
CENTRAL UPPER MICHIGAN

CITY           SKY/WX    TMP DP  RH WIND       PRES   REMARKS
MANISTIQUE     MOSUNNY   65  51  61 NE13G18   30.34F
ESCANABA       SUNNY     64  54  69 NE9       30.34F
MENOMINEE      PTSUNNY   62  56  80 E18       30.33S
SAWYER-GWINN   MOSUNNY   61  55  82 NE14G22   30.39F
$$
MIZ001>003-009>011-084-301700-
WESTERN UPPER MICHIGAN

CITY           SKY/WX    TMP DP  RH WIND       PRES   REMARKS
IRON MOUNTAIN  SUNNY     64  50  60 NE14      30.36F
HOUGHTON       MOSUNNY   62  55  77 NE7       30.42F
COPPER HARBOR    N/A     62  57  83 E7        30.43S
IRONWOOD       CLOUDY    56  52  86 NE7       30.43F
$$

ABBREVIATIONS USED IN REMARKS
   TC - TEMPERATURE IN CELSIUS
  WCI - WIND CHILL INDEX
   HX - HEAT INDEX
  VSB - VISIBILITY





USA.gov is the U.S. government's official web portal to all federal, state and local government web resources and services.